Location: Street
(51.1247°N, 2.7429°W)
Time: 08:28:13
(UTC+00:00)

Tiros 1 - Pass Details

Date: 30 November 2020
Orbit: 630 x 663 km, 48.4° (Epoch: 28 January)

Event Time Altitude Azimuth Distance (km) Brightness Sun altitude
Rises 20:40:29 0° 279° (W) 2,985 11.4 -41.7°
Enters shadow 20:42:47 - 268° (W) 2,213 10.5 -42.0°
Reaches altitude 10° 20:43:16 10° 265° (W) 2,065 - -42.1°
Maximum altitude 20:46:53 22° 215° (SW) 1,422 - -42.6°
Drops below altitude 10° 20:50:29 10° 165° (SSE) 2,042 - -43.2°
Sets 20:53:13 0° 150° (SSE) 2,942 - -43.6°
